Weather History for Forest City, IA

Change the Weather History Date:

Saturday, June 29, 2013

  Actual Average Record
Temperature  
Mean Temperature 68 °F -  
Max Temperature 73 °F 81 °F 82 °F (2011)
Min Temperature 62 °F 60 °F 60 °F (2011)
Cooling Degree Days 2    
Growing Degree Days 18 (Base 50)    
Moisture  
Dew Point 56 °F    
Average Humidity 65    
Maximum Humidity 83    
Minimum Humidity 44    
Precipitation  
Precipitation 0.00 in - - ()
Sea Level Pressure  
Sea Level Pressure 29.85 in    
Wind  
Wind Speed 10 mph (North)    
Max Wind Speed 22 mph    
Max Gust Speed 32 mph    
Visibility 10 miles    
Events Rain    
Averages and records for this station are not official NWS values.
T = Trace of Precipitation, MM = Missing Value Source: NWS Daily Summary

Daily Weather History Graph

Daily Weather History Graph

Search for Another Location

Airport:

Trip Planner

Search our weather history database for the weather conditions in past years. The results will help you decide how hot, cold, wet, or windy it might be!

Date:

Astronomy

Jun. 29, 2013 Rise Set
Actual Time 5:37 AM CDT 8:58 PM CDT
Civil Twilight 5:02 AM CDT 9:33 PM CDT
Nautical Twilight 4:15 AM CDT 10:19 PM CDT
Astronomical Twilight 3:18 AM CDT 11:16 PM CDT
Moon 12:16 AM CDT (6/29) 1:02 PM CDT (6/29)
Length of Visible Light 16h 31m
Length of Day
15h 21m
Waning Gibbous, 55% of the Moon is Illuminated
Jun 29
Waning Gibbous
Jun 29
Last Quarter
Jul 8
New
Jul 15
First Quarter
Jul 22
Full

Hourly Weather History & Observations

Time (CDT) Temp. Dew Point Humidity Pressure Visibility Wind Dir Wind Speed Gust Speed Precip Events Conditions
12:15 AM 68.0 °F 59.0 °F 73% 29.79 in 10.0 mi NW 9.2 mph - N/A   Clear
12:35 AM 68.0 °F 59.0 °F 73% 29.79 in 10.0 mi NW 6.9 mph - N/A   Clear
12:55 AM 68.0 °F 59.0 °F 73% 29.79 in 10.0 mi NNW 11.5 mph 16.1 mph N/A   Clear
1:15 AM 68.0 °F 59.0 °F 73% 29.79 in 10.0 mi NNW 10.4 mph 17.3 mph N/A   Clear
1:35 AM 68.0 °F 59.0 °F 73% 29.79 in 10.0 mi NNW 9.2 mph 18.4 mph N/A   Clear
1:55 AM 68.0 °F 57.2 °F 68% 29.79 in 10.0 mi NNW 9.2 mph - N/A   Clear
2:15 AM 68.0 °F 57.2 °F 68% 29.79 in 10.0 mi NNW 10.4 mph - N/A   Scattered Clouds
2:35 AM 68.0 °F 57.2 °F 68% 29.79 in 10.0 mi NW 6.9 mph - N/A   Clear
2:55 AM 68.0 °F 59.0 °F 73% 29.78 in 10.0 mi NW 10.4 mph - N/A   Clear
3:15 AM 68.0 °F 57.2 °F 68% 29.78 in 10.0 mi NW 8.1 mph - N/A   Clear
3:35 AM 66.2 °F 57.2 °F 73% 29.78 in 10.0 mi NW 9.2 mph - N/A   Clear
3:55 AM 66.2 °F 57.2 °F 73% 29.79 in 10.0 mi NNW 10.4 mph - N/A   Clear
4:15 AM 66.2 °F 57.2 °F 73% 29.79 in 10.0 mi NNW 8.1 mph - N/A   Scattered Clouds
4:35 AM 66.2 °F 57.2 °F 73% 29.79 in 10.0 mi NNW 9.2 mph - N/A   Scattered Clouds
4:55 AM 64.4 °F 57.2 °F 77% 29.79 in 10.0 mi NW 8.1 mph - N/A   Scattered Clouds
5:15 AM 64.4 °F 57.2 °F 77% 29.79 in 10.0 mi NW 6.9 mph - N/A   Clear
5:35 AM 64.4 °F 57.2 °F 77% 29.79 in 10.0 mi WNW 9.2 mph - N/A   Clear
5:55 AM 64.4 °F 57.2 °F 77% 29.78 in 10.0 mi WNW 12.7 mph 17.3 mph N/A   Clear
6:15 AM 64.4 °F 57.2 °F 77% 29.78 in 10.0 mi WNW 11.5 mph 18.4 mph N/A   Clear
6:35 AM 64.4 °F 57.2 °F 77% 29.78 in 10.0 mi NW 10.4 mph - N/A   Scattered Clouds
6:55 AM 64.4 °F 57.2 °F 77% 29.78 in 10.0 mi NW 10.4 mph - N/A   Scattered Clouds
7:15 AM 64.4 °F 57.2 °F 77% 29.78 in 10.0 mi NW 12.7 mph 21.9 mph N/A   Scattered Clouds
7:35 AM 64.4 °F 57.2 °F 77% 29.79 in 10.0 mi NW 18.4 mph 28.8 mph N/A   Overcast
7:55 AM 64.4 °F 59.0 °F 83% 29.79 in 10.0 mi NW 17.3 mph 29.9 mph N/A   Overcast
8:15 AM 64.4 °F 59.0 °F 83% 29.79 in 10.0 mi NW 17.3 mph 23.0 mph N/A   Overcast
8:35 AM 64.4 °F 59.0 °F 83% 29.79 in 10.0 mi NNW 18.4 mph 28.8 mph N/A   Overcast
8:55 AM 66.2 °F 59.0 °F 78% 29.80 in 10.0 mi North 16.1 mph 23.0 mph N/A Rain Light Rain
9:15 AM 64.4 °F 59.0 °F 83% 29.81 in 10.0 mi North 15.0 mph 24.2 mph N/A Rain Rain
9:35 AM 66.2 °F 60.8 °F 83% 29.81 in 10.0 mi NNW 15.0 mph 20.7 mph N/A   Overcast
9:55 AM 66.2 °F 59.0 °F 78% 29.81 in 10.0 mi North 15.0 mph 23.0 mph N/A   Overcast
10:15 AM 66.2 °F 59.0 °F 78% 29.82 in 10.0 mi North 15.0 mph 19.6 mph N/A   Overcast
10:35 AM 68.0 °F 59.0 °F 73% 29.82 in 10.0 mi North 19.6 mph 25.3 mph N/A   Overcast
10:55 AM 68.0 °F 59.0 °F 73% 29.83 in 10.0 mi North 13.8 mph 21.9 mph N/A   Overcast
11:15 AM 68.0 °F 59.0 °F 73% 29.84 in 10.0 mi North 15.0 mph 23.0 mph N/A   Overcast
11:35 AM 68.0 °F 59.0 °F 73% 29.84 in 10.0 mi North 16.1 mph 20.7 mph N/A   Overcast
11:55 AM 68.0 °F 59.0 °F 73% 29.84 in 10.0 mi North 18.4 mph - N/A   Overcast
12:15 PM 68.0 °F 57.2 °F 68% 29.84 in 10.0 mi North 18.4 mph 24.2 mph N/A   Overcast
12:35 PM 71.6 °F 55.4 °F 57% 29.85 in 10.0 mi North 15.0 mph 23.0 mph N/A   Overcast
12:55 PM 71.6 °F 53.6 °F 53% 29.85 in 10.0 mi NNE 21.9 mph 27.6 mph N/A   Mostly Cloudy
1:15 PM 73.4 °F 51.8 °F 47% 29.85 in 10.0 mi North 19.6 mph 32.2 mph N/A   Scattered Clouds
1:35 PM 73.4 °F 53.6 °F 50% 29.86 in 10.0 mi NNE 17.3 mph 25.3 mph N/A   Scattered Clouds
1:55 PM 73.4 °F 53.6 °F 50% 29.86 in 10.0 mi NNE 21.9 mph 27.6 mph N/A   Mostly Cloudy
2:15 PM 73.4 °F 53.6 °F 50% 29.87 in 10.0 mi NNE 19.6 mph 25.3 mph N/A   Mostly Cloudy
2:35 PM 71.6 °F 50.0 °F 46% 29.87 in 10.0 mi North 15.0 mph 27.6 mph N/A   Overcast
2:55 PM 71.6 °F 51.8 °F 50% 29.88 in 10.0 mi North 11.5 mph 24.2 mph N/A   Overcast
3:15 PM 71.6 °F 51.8 °F 50% 29.89 in 10.0 mi NNE 10.4 mph 20.7 mph N/A   Overcast
3:35 PM 71.6 °F 51.8 °F 50% 29.88 in 10.0 mi Calm Calm - N/A   Overcast
3:55 PM 73.4 °F 51.8 °F 47% 29.88 in 10.0 mi North 13.8 mph 20.7 mph N/A   Mostly Cloudy
4:15 PM 73.4 °F 51.8 °F 47% 29.88 in 10.0 mi NNE 8.1 mph 20.7 mph N/A   Overcast
4:35 PM 73.4 °F 51.8 °F 47% 29.88 in 10.0 mi NNE 8.1 mph 18.4 mph N/A   Overcast
4:55 PM 73.4 °F 51.8 °F 47% 29.88 in 10.0 mi NNE 4.6 mph 18.4 mph N/A   Mostly Cloudy
5:15 PM 73.4 °F 50.0 °F 44% 29.89 in 10.0 mi NE 8.1 mph 17.3 mph N/A   Scattered Clouds
5:35 PM 73.4 °F 50.0 °F 44% 29.89 in 10.0 mi Calm Calm - N/A   Scattered Clouds
5:55 PM 71.6 °F 51.8 °F 50% 29.89 in 10.0 mi Calm Calm - N/A   Mostly Cloudy
6:15 PM 71.6 °F 51.8 °F 50% 29.89 in 10.0 mi Calm Calm - N/A   Scattered Clouds
6:35 PM 71.6 °F 51.8 °F 50% 29.89 in 10.0 mi Calm Calm - N/A   Clear
6:55 PM 71.6 °F 53.6 °F 53% 29.89 in 10.0 mi Calm Calm - N/A   Scattered Clouds
7:15 PM 71.6 °F 51.8 °F 50% 29.90 in 10.0 mi NNE 5.8 mph - N/A   Overcast
7:35 PM 71.6 °F 51.8 °F 50% 29.90 in 10.0 mi Calm Calm - N/A   Overcast
7:55 PM 71.6 °F 53.6 °F 53% 29.91 in 10.0 mi NE 10.4 mph 17.3 mph N/A   Overcast
8:15 PM 71.6 °F 53.6 °F 53% 29.92 in 10.0 mi NE 6.9 mph - N/A   Scattered Clouds
8:35 PM 69.8 °F 53.6 °F 56% 29.92 in 10.0 mi NE 5.8 mph - N/A   Scattered Clouds
8:55 PM 69.8 °F 53.6 °F 56% 29.93 in 10.0 mi NE 6.9 mph - N/A   Overcast
9:15 PM 69.8 °F 53.6 °F 56% 29.93 in 10.0 mi NNE 3.5 mph - N/A   Overcast
9:35 PM 68.0 °F 55.4 °F 64% 29.94 in 10.0 mi North 4.6 mph - N/A   Overcast
9:55 PM 68.0 °F 55.4 °F 64% 29.94 in 10.0 mi North 4.6 mph - N/A   Overcast
10:15 PM 68.0 °F 55.4 °F 64% 29.95 in 10.0 mi North 4.6 mph - N/A   Scattered Clouds
10:35 PM 64.4 °F 55.4 °F 73% 29.96 in 10.0 mi Calm Calm - N/A   Scattered Clouds
10:55 PM 64.4 °F 55.4 °F 73% 29.95 in 10.0 mi North 3.5 mph - N/A   Scattered Clouds
11:15 PM 64.4 °F 55.4 °F 73% 29.96 in 10.0 mi North 4.6 mph - N/A   Clear
11:35 PM 62.6 °F 55.4 °F 77% 29.95 in 10.0 mi North 3.5 mph - N/A   Clear
11:55 PM 64.4 °F 55.4 °F 73% 29.95 in 10.0 mi North 5.8 mph - N/A   Clear